TimeCDT,TemperatureF,Dew PointF,Humidity,Sea Level PressureIn,VisibilityMPH,Wind Direction,Wind SpeedMPH,Gust SpeedMPH,PrecipitationIn,Events,Conditions,WindDirDegrees,DateUTC
12:52 AM,63.0,59.0,87,29.66,10.0,SSE,5.8,-,N/A,,Clear,150,2013-05-20 05:52:00
1:52 AM,60.1,57.9,93,29.64,9.0,SSE,6.9,-,N/A,,Clear,160,2013-05-20 06:52:00
2:52 AM,62.1,57.9,86,29.66,10.0,South,5.8,-,N/A,,Clear,180,2013-05-20 07:52:00
3:52 AM,62.1,59.0,90,29.65,10.0,SSE,9.2,-,N/A,,Clear,150,2013-05-20 08:52:00
4:52 AM,63.0,59.0,87,29.67,10.0,South,8.1,-,N/A,,Clear,180,2013-05-20 09:52:00
5:52 AM,62.1,59.0,90,29.68,9.0,South,5.8,-,N/A,,Clear,170,2013-05-20 10:52:00
6:52 AM,61.0,59.0,93,29.71,7.0,SSE,5.8,-,N/A,,Clear,160,2013-05-20 11:52:00
7:52 AM,64.9,61.0,87,29.73,10.0,South,11.5,-,N/A,,Partly Cloudy,190,2013-05-20 12:52:00
8:52 AM,66.9,61.0,81,29.74,10.0,SW,8.1,-,N/A,,Clear,230,2013-05-20 13:52:00
9:52 AM,66.9,62.1,84,29.74,10.0,SW,5.8,-,N/A,,Clear,230,2013-05-20 14:52:00
10:52 AM,72.0,63.0,73,29.73,10.0,South,6.9,-,N/A,,Clear,190,2013-05-20 15:52:00
11:52 AM,75.9,64.0,67,29.73,10.0,South,9.2,-,N/A,,Clear,180,2013-05-20 16:52:00
12:52 PM,78.1,63.0,60,29.72,10.0,South,13.8,-,N/A,,Overcast,170,2013-05-20 17:52:00
1:52 PM,77.0,64.9,66,29.72,10.0,South,13.8,21.9,N/A,,Mostly Cloudy,170,2013-05-20 18:52:00
2:52 PM,79.0,66.0,64,29.69,10.0,SSE,10.4,-,N/A,,Clear,160,2013-05-20 19:52:00
3:14 PM,78.8,66.2,65,29.68,10.0,SSE,9.2,-,N/A,,Partly Cloudy,160,2013-05-20 20:14:00
3:52 PM,78.1,66.0,66,29.66,10.0,SSE,11.5,-,N/A,,Mostly Cloudy,150,2013-05-20 20:52:00
4:07 PM,80.6,66.2,61,29.68,10.0,SE,11.5,-,N/A,,Mostly Cloudy,140,2013-05-20 21:07:00
4:52 PM,80.1,66.9,64,29.64,10.0,South,9.2,-,N/A,,Clear,170,2013-05-20 21:52:00
5:52 PM,82.0,64.0,54,29.62,10.0,Variable,6.9,-,N/A,,Clear,0,2013-05-20 22:52:00
6:52 PM,78.1,60.1,54,29.60,10.0,SW,6.9,-,N/A,,Clear,220,2013-05-20 23:52:00
7:52 PM,79.0,52.0,39,29.64,10.0,WSW,9.2,-,N/A,,Clear,240,2013-05-21 00:52:00
8:52 PM,73.9,54.0,50,29.64,10.0,West,9.2,-,N/A,,Clear,280,2013-05-21 01:52:00
9:52 PM,71.1,52.0,51,29.67,10.0,WSW,8.1,-,N/A,,Clear,250,2013-05-21 02:52:00
10:52 PM,69.1,55.0,61,29.69,10.0,SW,9.2,-,N/A,,Clear,220,2013-05-21 03:52:00
11:52 PM,70.0,54.0,57,29.69,10.0,SW,10.4,-,N/A,,Clear,230,2013-05-21 04:52:00